This is the latest recevied weather packets stored in our database for station/object DH1NAI-6. If no packets are shown the sender has not sent any weather packets the latest 10 day(s).
| Time | Temp. | Humidity | Pressure | Rain* | Wind** | Luminosity | Snow |
|---|---|---|---|---|---|---|---|
| 1777538963 | 8.89° C | 41% | 1026.7 hPa | 0 mm | - | 179 W/m² | - |
| 1777538356 | 8.33° C | 41% | 1026.8 hPa | 0 mm | - | 170 W/m² | - |
| 1777537747 | 8.33° C | 43% | 1026.8 hPa | 0 mm | - | 162 W/m² | - |
| 1777537140 | 7.78° C | 43% | 1026.9 hPa | 0 mm | - | 166 W/m² | - |
| 1777536531 | 7.22° C | 47% | 1026.9 hPa | 0 mm | - | 161 W/m² | - |
| 1777535923 | 6.67° C | 46% | 1026.8 hPa | 0 mm | - | 143 W/m² | - |
| 1777535311 | 6.67° C | 47% | 1026.8 hPa | 0 mm | - | 133 W/m² | - |
| 1777534708 | 6.11° C | 45% | 1026.9 hPa | 0 mm | - | 119 W/m² | - |
| 1777534099 | 6.11° C | 49% | 1026.9 hPa | 0 mm | - | 109 W/m² | - |
| 1777533475 | 6.11° C | 48% | 1026.8 hPa | 0 mm | - | 100 W/m² | - |
| 1777532852 | 5.56° C | 50% | 1026.8 hPa | 0 mm | - | 89 W/m² | - |
| 1777532243 | 5° C | 50% | 1027.1 hPa | 0 mm | - | 80 W/m² | - |
| 1777531619 | 5° C | 51% | 1027 hPa | 0 mm | - | 74 W/m² | - |
| 1777530995 | 5° C | 51% | 1026.8 hPa | 0 mm | - | 67 W/m² | - |
| 1777530387 | 4.44° C | 52% | 1026.8 hPa | 0 mm | - | 62 W/m² | - |
| 1777529779 | 3.89° C | 54% | 1026.7 hPa | 0 mm | - | 53 W/m² | - |
| 1777529155 | 4.44° C | 54% | 1026.6 hPa | 0 mm | - | 13 W/m² | - |
| 1777528532 | 3.33° C | 55% | 1026.5 hPa | 0 mm | - | 12 W/m² | - |
| 1777527923 | 3.33° C | 57% | 1026.6 hPa | 0 mm | - | 33 W/m² | - |
| 1777527299 | 2.78° C | 57% | 1026.4 hPa | 0 mm | - | 26 W/m² | - |
| 1777526672 | 1.67° C | 60% | 1026.5 hPa | 0 mm | - | 15 W/m² | - |
| 1777526051 | 0.56° C | 66% | 1026 hPa | 0 mm | - | 11 W/m² | - |
| 1777525443 | -1.11° C | 73% | 1026 hPa | 0 mm | - | 9 W/m² | - |
| 1777524819 | -1.67° C | 76% | 1026.1 hPa | 0 mm | - | 8 W/m² | - |
| 1777524212 | -2.22° C | 77% | 1026 hPa | 0 mm | - | 7 W/m² | - |
* Rain latest hour (hover to see other rain measurements)
** Current wind speed in m/s (hover to see current wind gust speed)